Weather in Invercargill

New Zealand     46°24′46″S   168°21′07″E
temp.,
°C
wind,
m/s
gust,
m/s
humid.,
%
clouds,
%
prec.,
mm/h
press.,
hPa
HPBL,
m
16 may, sun
sun1600:00+8nw465924 0.1 1006994
03:00+6nne4575100 0.0 1006171
06:00+6nne5881100 0.0 1004331
09:00+6n69899 0.4 1005404
12:00+8n678729 0.4 1004371
15:00+10w897377 0.2 10031000
18:00+10wnw1010695 0.3 1003905
21:00+7n568520 0.0 1004292
17 may, mon
mon1700:00+7n6982100 0.0 1003241
03:00+7n6981100 0.0 1001248
06:00+7n5879100 0.0 999259
09:00+7nnw71179100 0.1 998337
12:00+9nnw71280100 0.3 996531
15:00+9wnw91489100 9.1 9941392
18:00+10wnw14187256 10.9 9941854
21:00+9nw14217329 1.8 9932015
18 may, tue
tue1800:00+6w162185100 6.1 9931968
03:00+6wsw15206999 2.3 9962382
06:00+7w152073100 4.3 9972160
09:00+8w172373100 1.3 9972263
12:00+10w182580100 3.9 9972315
15:00+11w172384100 1.8 9961973
18:00+11w162287100 4.8 9961878
21:00+12w172386100 2.8 9961778
19 may, wed
wed1900:00+12w172584100 5.1 9972059
03:00+11wsw14186196 0.9 10022197
06:00+10wsw111467100 1.1 10061627
09:00+11w101368100 0.4 10091720
12:00+11w111466100 0.6 10111637
15:00+12w101468100 0.0 10111369
18:00+10nw61382100 0.8 1010661
21:00+13w121785100 0.3 10131307
20 may, thu
thu2000:00+13w12178498 0.5 10141343
03:00+12wnw111581100 0.1 10151014
06:00+11nw8148099 0.1 1015751
09:00+10nw4977100 0.1 1017339
12:00+13wnw51170100 0.1 1017598
15:00+13nnw4872100 0.0 1015338
18:00+12n51080100 0.0 1013297
21:00+12nnw61181100 0.0 1011340